Wichita, KS

7:44 PM CST on February 09, 2016 (GMT -0600)
McConnell Air Force Base

Weather History for KIAB - November, 2012

Change the Weather History Date:

Wednesday, November 28, 2012

  Actual Average Record
Temperature  
Mean Temperature 42 °F -  
Max Temperature 56 °F 48 °F 68 °F (2006)
Min Temperature 29 °F 31 °F 21 °F (2001)
Degree Days  
Heating Degree Days 22    
Moisture  
Dew Point 29 °F    
Average Humidity 61    
Maximum Humidity 81    
Minimum Humidity 38    
Precipitation  
Precipitation 0.00 in - - ()
Sea Level Pressure  
Sea Level Pressure 30.29 in    
Wind  
Wind Speed 7 mph (SE)    
Max Wind Speed 14 mph    
Max Gust Speed -    
Visibility 10 miles    
Events      
Averages and records for this station are not official NWS values.
T = Trace of Precipitation, MM = Missing Value Source: NWS Daily Summary

Daily Weather History Graph

Daily Weather History Graph

Search for Another Location

Airport or City:

Trip Planner

Search our weather history database for the weather conditions in past years. The results will help you decide how hot, cold, wet, or windy it might be!

Date:

Astronomy

Nov. 28, 2012 Rise Set
Actual Time 7:22 AM CST 5:11 PM CST
Civil Twilight 6:54 AM CST 5:40 PM CST
Nautical Twilight 6:21 AM CST 6:12 PM CST
Astronomical Twilight 5:50 AM CST 6:43 PM CST
Moon 5:27 PM CST (11/28) 7:21 AM CST (11/28)
Length of Visible Light 10h 45m
Length of Day
9h 48m
Full, 100% of the Moon is Illuminated
Nov 28
Full
Dec 6
Last Quarter
Dec 13
New
Dec 19
First Quarter
Dec 28
Full

Hourly Weather History & Observations

Time (CST) Temp. Windchill Dew Point Humidity Pressure Visibility Wind Dir Wind Speed Gust Speed Precip Events Conditions
12:55 AM 31.1 °F 25.4 °F 22.8 °F 71% 30.35 in 10.0 mi SSE 5.8 mph - N/A   Clear
1:55 AM 31.8 °F 26.2 °F 23.2 °F 70% 30.34 in 10.0 mi SSE 5.8 mph - N/A   Clear
2:55 AM 30.6 °F 25.8 °F 23.0 °F 74% 30.35 in 10.0 mi SSE 4.6 mph - N/A   Clear
3:55 AM 29.7 °F 22.8 °F 23.0 °F 76% 30.35 in 10.0 mi SSE 6.9 mph - N/A   Clear
4:55 AM 30.7 °F 26.0 °F 23.7 °F 75% 30.35 in 10.0 mi SE 4.6 mph - N/A   Clear
5:55 AM 29.7 °F 24.7 °F 23.9 °F 79% 30.36 in 10.0 mi SSE 4.6 mph - N/A   Clear
6:55 AM 30.2 °F 26.7 °F 24.1 °F 78% 30.38 in 10.0 mi ESE 3.5 mph - N/A   Clear
7:55 AM 29.7 °F 26.1 °F 24.6 °F 81% 30.39 in 10.0 mi SE 3.5 mph - N/A   Clear
8:55 AM 36.0 °F 32.1 °F 27.5 °F 71% 30.39 in 10.0 mi SE 4.6 mph - N/A   Clear
9:55 AM 43.2 °F 37.4 °F 29.7 °F 59% 30.39 in 10.0 mi SSE 10.4 mph - N/A   Clear
10:55 AM 48.6 °F - 29.7 °F 48% 30.38 in 10.0 mi SSE 12.7 mph - N/A   Clear
11:55 AM 52.0 °F - 30.4 °F 44% 30.35 in 10.0 mi South 13.8 mph - N/A   Clear
12:55 PM 53.6 °F - 31.3 °F 43% 30.31 in 10.0 mi SSE 11.5 mph - N/A   Clear
1:55 PM 55.9 °F - 30.6 °F 38% 30.28 in 10.0 mi SE 12.7 mph - N/A   Clear
2:55 PM 56.5 °F - 30.7 °F 38% 30.24 in 10.0 mi SSE 12.7 mph - N/A   Clear
3:55 PM 56.5 °F - 31.1 °F 38% 30.23 in 10.0 mi SE 10.4 mph - N/A   Clear
4:55 PM 54.0 °F - 31.8 °F 43% 30.22 in 10.0 mi SE 9.2 mph - N/A   Clear
5:55 PM 49.6 °F - 31.5 °F 50% 30.22 in 10.0 mi SE 9.2 mph - N/A   Clear
6:55 PM 47.7 °F - 31.1 °F 53% 30.22 in 10.0 mi SE 8.1 mph - N/A   Clear
7:55 PM 46.8 °F - 31.3 °F 55% 30.22 in 10.0 mi ESE 10.4 mph - N/A   Clear
8:55 PM 45.0 °F 39.3 °F 32.0 °F 60% 30.19 in 10.0 mi SE 11.5 mph - N/A   Clear
9:55 PM 44.2 °F 38.8 °F 33.1 °F 65% 30.17 in 10.0 mi SSE 10.4 mph - N/A   Clear
10:55 PM 42.3 °F 36.8 °F 33.6 °F 71% 30.15 in 10.0 mi SE 9.2 mph - N/A   Clear
11:55 PM 41.0 °F 35.2 °F 34.3 °F 77% 30.14 in 10.0 mi SE 9.2 mph - N/A   Clear